Weather in Pisa

Italy     43˚42′37″N   10˚23′56″E
temp.,
°C
wind,
m/s
gust,
m/s
humid.,
%
clouds,
%
prec.,
mm/h
press.,
hPa
HPBL,
m
3 december, thu
thu301:00+6˚nne229088 2.1 100799
04:00+6˚e228797 0.6 100754
07:00+6˚ne118487 0.6 100727
10:00+7˚ene127457 0.0 1008167
13:00+10˚ese116628 0.0 1007440
16:00+8˚w00760 0.0 100627
19:00+6˚ne00850 0.0 100626
22:00+5˚e128723 0.0 100523
4 december, fri
fri401:00+5˚ene228862 0.0 100435
04:00+4˚e228995 0.0 100240
07:00+4˚ene339197 0.0 100188
10:00+7˚e3581100 0.0 999324
13:00+7˚ene4588100 1.1 997240
16:00+8˚ese1399100 15.0 995133
19:00+10˚se21296100 35.1 994615
22:00+11˚sse41392100 2.8 994970
5 december, sat
sat501:00+11˚sse2997100 13.8 994544
04:00+11˚wsw2394100 4.3 994108
07:00+9˚wnw2595100 9.4 994305
10:00+8˚nnw4694100 10.6 994284
13:00+8˚se2395100 17.2 994267
16:00+8˚ese3592100 2.4 995381
19:00+7˚e2396100 4.4 995220
22:00+7˚sw1196100 6.0 99587
6 december, sun
sun601:00+7˚wsw1194100 8.4 996124
04:00+7˚w2391100 0.3 996145
07:00+6˚nw1190100 0.4 99530
10:00+8˚wnw1283100 0.0 996209
13:00+10˚w5868100 0.1 9951488
16:00+9˚wsw4977100 0.7 995425
19:00+8˚sw378595 3.1 997235
22:00+8˚ssw268586 1.5 999233
7 december, mon
mon701:00+8˚ssw128793 4.1 100069
04:00+8˚ssw129099 1.9 100146
07:00+6˚ene229498 4.1 100247
10:00+8˚ene348792 0.2 1003187
13:00+9˚ene488296 0.8 1003662
16:00+7˚ene2395100 6.4 1003230
19:00+7˚ene2293100 9.6 1004101
22:00+7˚ene1190100 0.0 100535